AirNav   Everest Fuels
 
 444 users online  

3CA1 Newport Beach Police Heliport
Newport Beach, California, USA

GOING TO NEWPORT BEACH?


FAA INFORMATION EFFECTIVE 10 SEPTEMBER 2020

Location

FAA Identifier: 3CA1
Lat/Long: 33-37-23.3300N 117-52-48.8200W
33-37.388833N 117-52.813667W
33.6231472,-117.8802278
(estimated)
Elevation: 156 ft. / 48 m (estimated)
Variation: 14E (1985)
From city: 1 mile NE of NEWPORT BEACH, CA
Time zone: UTC -7 (UTC -8 during Standard Time)
Zip code: 92660

Heliport Operations

Heliport use: Private use. Permission required prior to landing
Activation date: 09/1976
Control tower: no
ARTCC: LOS ANGELES CENTER
FSS: RIVERSIDE FLIGHT SERVICE STATION
Attendance: UNATNDD
Wind indicator: yes
Segmented circle: no

Heliport Communications

WX ASOS at SNA (3 nm N): PHONE 714-424-0590
WX ASOS at FUL (16 nm N): PHONE 714-870-1372
WX ASOS at LGB (18 nm NW): PHONE 562-424-0572

Nearby radio navigation aids

VOR radial/distance  VOR name  Freq  Var
ELBr233/8.1EL TORO VOR/DME117.2014E
SLIr123/13.0SEAL BEACH VORTAC115.7015E
PDZr210/24.9PARADISE VORTAC112.2015E
POMr175/27.7POMONA VORTAC110.4015E
RALr213/(29.3)RIVERSIDE VOR112.4014E
SXCr046/30.8SANTA CATALINA VORTAC111.4015E
OCNr300/32.6OCEANSIDE VORTAC115.3015E
LAXr109/33.2LOS ANGELES VORTAC113.6015E
HDFr241/(35.9)HOMELAND VOR113.4014E
SMOr114/36.9SANTA MONICA VOR/DME110.8015E

Heliport Services

Airframe service: NONE
Powerplant service: NONE
Bottled oxygen: NONE
Bulk oxygen: NONE

Runway Information

Helipad H1

Dimensions: 45 x 45 ft. / 14 x 14 m
Surface: concrete
Latitude: 33-37.388833N
Longitude: 117-52.813667W
Elevation: 156.0 ft.
Traffic pattern: leftleft
Runway end identifier lights: no

Heliport Ownership and Management from official FAA records

Ownership: Publicly-owned
Owner: NEWPORT BEACH POLICE DEPT
870 SANTA BARBARA DR
NEWPORT BEACH, CA 92660
Phone 714-644-3730
Manager: LT. E. LITTLE
870 SANTA BARBARA DR
NEWPORT BEACH, CA 92660
Phone 949-644-3730

Additional Remarks

FOR CD CTC LOS ANGELES ARTCC AT 661-575-2079.

Instrument Procedures

There are no published instrument procedures at 3CA1.

Some nearby airports with instrument procedures:

KSNA - John Wayne-Orange County Airport (3 nm N)
KSLI - Los Alamitos Army Airfield (13 nm NW)
KFUL - Fullerton Municipal Airport (16 nm N)
KLGB - Long Beach Airport (Daugherty Field) (18 nm NW)
KAJO - Corona Municipal Airport (22 nm NE)
 
Loc | Ops | Rwys | IFR | FBO | Links
Com | Nav | Svcs | Stats | Notes

San Bernardino International Airport Authority
 
Area around 3CA1 (Newport Beach Police Heliport)
 
Road maps at: MapQuest Bing Google
 
Aerial photo
No photo
 
Sectional chart

 
Airport distance calculator
Flying to Newport Beach Police Heliport? Find the distance to fly.

From to 3CA1

Sunrise and sunset
Times for 29-Sep-2020
 Local
(UTC-7)
 Zulu
(UTC)
Morning civil twilight06:2113:21
Sunrise06:4613:46
Sunset18:3701:37
Evening civil twilight19:0202:02

Current date and time
Zulu (UTC)  29-Sep-2020 09:37:07
Local (UTC-7)  29-Sep-2020 02:37:07
 
METAR
KSNA 
3nm N 
290853Z AUTO 00000KT 7SM CLR 21/18 A2995 RMK AO2 SLP142 T02060178 58001
KSLI 
12nm NW 
290458Z 20005KT 7SM CLR 21/18 A2994 RMK SLP142 WND DATA ESTMD ALSTG/SLP ESTMD LAST
KFUL 
15nm N 
290853Z AUTO 31003KT 4SM HZ CLR 21/17 A2995 RMK AO2 SLP140 T02110172 58001
KLGB 
18nm NW 
290853Z AUTO 30007KT 4SM BR OVC004 19/18 A2996 RMK AO2 SLP145 T01890178 58001
TAF
KSNA 
3nm N 
290520Z 2906/3006 VRB04KT P6SM FEW010 FM292000 28008KT P6SM SKC FM300200 VRB04KT P6SM SKC
KSLI 
12nm NW 
290500Z 2905/3011 VRB06KT 9999 SKC QNH2987INS TX33/2921Z TN18/2914Z
KLGB 
18nm NW 
290805Z 2908/3006 30005KT 4SM BR BKN004 FM291000 VRB03KT 3SM BR OVC003 FM291600 VRB03KT P6SM SKC FM292000 29010KT P6SM SKC FM300500 VRB03KT P6SM SKC
NOTAMs
Click for the latest NOTAMs
NOTAMs are issued by the DoD/FAA and will open in a separate window not controlled by AirNav.

 

 
 

Would you like to see your business listed on this page?

 If your business provides an interesting product or service to pilots, flight crews, aircraft, or users of the Newport Beach Police Heliport, you should consider listing it here.  To start the listing process, click on the button below
 
Add a business
 

Other Pages about Newport Beach Police Heliport

Update a link
 
Copyright © AirNav, LLC. All rights reserved. Privacy Policy  Contact